| time (UTC) | temp F | wind direction | speed MPH | gust MPH | rain 1hr in | rain 24hr in | rain mn in | humidity % | barometer mb |
| 20260906084603 | 70 | 0 | 0.0 | 0.0 | 0.00 | 0.70 | 0.00 | 75 | 1010.7 |
| 20260906083104 | 70 | 0 | 0.0 | 0.0 | 0.00 | 0.70 | 0.00 | 75 | 1010.6 |
| 20260906081602 | 70 | 0 | 0.0 | 0.0 | 0.00 | 0.70 | 0.00 | 75 | 1010.6 |
| 20260906074603 | 70 | 0 | 0.0 | 0.0 | 0.00 | 0.70 | 0.00 | 75 | 1010.5 |
| 20260906073059 | 70 | 0 | 0.0 | 0.0 | 0.00 | 0.70 | 0.00 | 75 | 1010.2 |
| 20260906071557 | 70 | 0 | 0.0 | 0.0 | 0.00 | 0.70 | 0.00 | 75 | 1010.3 |
| 20260906064557 | 71 | 0 | 0.0 | 0.0 | 0.00 | 0.70 | 0.00 | 75 | 1010.7 |
| 20260906063103 | 71 | 0 | 0.0 | 0.0 | 0.00 | 0.70 | 0.00 | 75 | 1010.6 |
| 20260906061626 | 71 | 0 | 0.0 | 0.0 | 0.00 | 0.70 | 0.00 | 75 | 1010.9 |
| 20260906060114 | 71 | 0 | 0.0 | 0.0 | 0.00 | 0.70 | 0.00 | 75 | 1011.0 |
| 20260906054557 | 71 | 0 | 0.0 | 0.0 | 0.00 | 0.70 | 0.00 | 75 | 1011.5 |
| 20260906053059 | 71 | 0 | 0.0 | 0.0 | 0.00 | 0.70 | 0.00 | 75 | 1011.5 |
| 20260906051605 | 71 | 0 | 0.0 | 0.0 | 0.00 | 0.70 | 0.00 | 75 | 1011.5 |
| 20260906050105 | 71 | 0 | 0.0 | 0.0 | 0.00 | 0.70 | 0.00 | 75 | 1011.7 |
| 20260906044559 | 71 | 0 | 0.0 | 0.0 | 0.00 | 0.70 | 0.00 | 75 | 1011.7 |
| 20260906043102 | 71 | 0 | 0.0 | 0.0 | 0.00 | 0.70 | 0.00 | 75 | 1011.8 |
| 20260906041602 | 71 | 0 | 0.0 | 0.0 | 0.00 | 0.70 | 0.00 | 75 | 1011.9 |
| 20260906040106 | 71 | 0 | 0.0 | 0.0 | 0.00 | 0.70 | 0.00 | 75 | 1012.1 |
| 20260906034606 | 71 | 0 | 0.0 | 0.0 | 0.00 | 0.70 | 0.70 | 75 | 1012.0 |
| 20260906033100 | 71 | 0 | 0.0 | 1.0 | 0.00 | 0.70 | 0.70 | 75 | 1012.1 |
| 20260906031605 | 72 | 0 | 0.0 | 1.0 | 0.00 | 0.70 | 0.70 | 75 | 1012.2 |
| 20260906030111 | 73 | 0 | 0.0 | 0.0 | 0.00 | 0.70 | 0.70 | 75 | 1012.2 |
| 20260906024601 | 73 | 0 | 0.0 | 0.0 | 0.00 | 0.70 | 0.70 | 75 | 1012.1 |
| 20260906023109 | 73 | 0 | 0.0 | 0.0 | 0.00 | 0.70 | 0.70 | 75 | 1012.1 |
| 20260906021606 | 73 | 272 | 0.0 | 1.0 | 0.00 | 0.70 | 0.70 | 75 | 1011.8 |
| 20260906014605 | 72 | 0 | 0.0 | 0.0 | 0.00 | 0.70 | 0.70 | 75 | 1011.7 |
| 20260906013102 | 72 | 0 | 0.0 | 1.0 | 0.00 | 0.70 | 0.70 | 76 | 1011.7 |
| 20260906011607 | 73 | 0 | 0.0 | 1.0 | 0.00 | 0.70 | 0.70 | 75 | 1011.1 |
| 20260906004557 | 72 | 0 | 0.0 | 0.0 | 0.00 | 0.70 | 0.70 | 76 | 1011.0 |
| 20260906003105 | 72 | 0 | 0.0 | 0.0 | 0.00 | 0.70 | 0.70 | 76 | 1011.1 |
| 20260906001603 | 72 | 0 | 0.0 | 0.0 | 0.00 | 0.70 | 0.70 | 76 | 1011.0 |
| 20260906000104 | 73 | 0 | 0.0 | 0.0 | 0.00 | 0.70 | 0.70 | 76 | 1011.1 |
| 20260905234557 | 72 | 0 | 0.0 | 1.0 | 0.00 | 0.70 | 0.70 | 76 | 1011.2 |
| 20260905233102 | 72 | 0 | 0.0 | 0.0 | 0.00 | 0.70 | 0.70 | 77 | 1011.7 |
| 20260905231554 | 71 | 0 | 0.0 | 1.0 | 0.00 | 0.70 | 0.70 | 77 | 1012.1 |
| 20260905230103 | 71 | 0 | 0.0 | 1.0 | 0.00 | 0.70 | 0.70 | 78 | 1011.8 |
| 20260905224559 | 72 | 0 | 0.0 | 0.0 | 0.10 | 0.70 | 0.70 | 78 | 1010.9 |
| 20260905223102 | 72 | 0 | 0.0 | 1.0 | 0.29 | 0.70 | 0.70 | 79 | 1009.9 |
| 20260905221605 | 72 | 214 | 0.0 | 3.0 | 0.43 | 0.70 | 0.70 | 79 | 1010.2 |
| 20260905220059 | 71 | 243 | 0.0 | 4.0 | 0.70 | 0.70 | 0.70 | 83 | 1011.2 |
| 20260905214605 | 71 | 230 | 0.0 | 5.0 | 0.58 | 0.58 | 0.58 | 90 | 1012.6 |
| 20260905213113 | 77 | 341 | 9.0 | 18.0 | 0.41 | 0.41 | 0.41 | 88 | 1013.1 |
| 20260905211612 | 82 | 15 | 12.0 | 29.0 | 0.27 | 0.27 | 0.27 | 81 | 1011.2 |
| 20260905210112 | 93 | 45 | 7.0 | 12.0 | 0.00 | 0.00 | 0.00 | 59 | 1010.0 |
| 20260905204559 | 94 | 76 | 3.0 | 4.0 | 0.00 | 0.00 | 0.00 | 57 | 1009.5 |
| 20260905203106 | 94 | 49 | 3.0 | 4.0 | 0.00 | 0.00 | 0.00 | 65 | 1009.1 |
| 20260905201604 | 94 | 47 | 3.0 | 4.0 | 0.00 | 0.00 | 0.00 | 63 | 1009.5 |
| 20260905200104 | 95 | 0 | 0.0 | 4.0 | 0.00 | 0.00 | 0.00 | 53 | 1009.9 |
| 20260905194559 | 94 | 53 | 3.0 | 5.0 | 0.00 | 0.00 | 0.00 | 52 | 1009.9 |
| 20260905193103 | 94 | 0 | 0.0 | 3.0 | 0.00 | 0.00 | 0.00 | 55 | 1010.0 |
| 20260905191603 | 93 | 0 | 0.0 | 4.0 | 0.00 | 0.00 | 0.00 | 56 | 1010.2 |
| 20260905184605 | 92 | 62 | 3.0 | 5.0 | 0.00 | 0.00 | 0.00 | 61 | 1010.6 |
| 20260905183118 | 92 | 64 | 3.0 | 6.0 | 0.00 | 0.00 | 0.00 | 63 | 1011.1 |
| 20260905181608 | 91 | 63 | 4.0 | 6.0 | 0.00 | 0.00 | 0.00 | 62 | 1011.2 |
| 20260905180106 | 91 | 65 | 5.0 | 7.0 | 0.00 | 0.00 | 0.00 | 68 | 1011.4 |
| 20260905174557 | 90 | 63 | 4.0 | 6.0 | 0.00 | 0.00 | 0.00 | 69 | 1011.6 |
| 20260905173110 | 90 | 64 | 4.0 | 5.0 | 0.00 | 0.00 | 0.00 | 67 | 1011.9 |
| 20260905171605 | 90 | 63 | 3.0 | 6.0 | 0.00 | 0.00 | 0.00 | 68 | 1012.0 |
| 20260905164558 | 90 | 61 | 3.0 | 5.0 | 0.00 | 0.00 | 0.00 | 65 | 1012.7 |
| 20260905163108 | 90 | 63 | 3.0 | 6.0 | 0.00 | 0.00 | 0.00 | 67 | 1012.9 |
| 20260905161604 | 89 | 0 | 2.0 | 5.0 | 0.00 | 0.00 | 0.00 | 63 | 1013.0 |
| 20260905160100 | 89 | 334 | 2.0 | 4.0 | 0.00 | 0.00 | 0.00 | 66 | 1013.3 |
| 20260905154607 | 89 | 0 | 0.0 | 3.0 | 0.00 | 0.00 | 0.00 | 66 | 1013.2 |
| 20260905153111 | 88 | 259 | 2.0 | 6.0 | 0.00 | 0.00 | 0.00 | 68 | 1013.4 |
| 20260905151608 | 87 | 333 | 2.0 | 6.0 | 0.00 | 0.00 | 0.00 | 70 | 1013.5 |
| 20260905150105 | 86 | 330 | 3.0 | 6.0 | 0.00 | 0.00 | 0.00 | 72 | 1013.6 |
| 20260905144602 | 86 | 337 | 0.0 | 4.0 | 0.00 | 0.00 | 0.00 | 74 | 1013.8 |
| 20260905143105 | 85 | 0 | 0.0 | 2.0 | 0.00 | 0.00 | 0.00 | 75 | 1014.0 |
| 20260905141623 | 85 | 287 | 1.0 | 4.0 | 0.00 | 0.00 | 0.00 | 76 | 1013.9 |
| 20260905140106 | 84 | 239 | 1.0 | 3.0 | 0.00 | 0.00 | 0.00 | 80 | 1013.9 |
| 20260905134604 | 83 | 0 | 0.0 | 2.0 | 0.00 | 0.00 | 0.00 | 82 | 1013.8 |
| 20260905133102 | 82 | 0 | 0.0 | 3.0 | 0.00 | 0.00 | 0.00 | 83 | 1014.1 |
| 20260905131615 | 81 | 0 | 0.0 | 2.0 | 0.00 | 0.00 | 0.00 | 85 | 1014.1 |
| 20260905130106 | 80 | 248 | 0.0 | 4.0 | 0.00 | 0.00 | 0.00 | 87 | 1014.1 |
| 20260905124604 | 78 | 0 | 0.0 | 2.0 | 0.00 | 0.00 | 0.00 | 89 | 1014.2 |
| 20260905123106 | 77 | 226 | 0.0 | 4.0 | 0.00 | 0.00 | 0.00 | 91 | 1014.0 |
| 20260905121603 | 76 | 233 | 1.0 | 3.0 | 0.00 | 0.00 | 0.00 | 91 | 1013.8 |
| 20260905120105 | 75 | 216 | 1.0 | 2.0 | 0.00 | 0.00 | 0.00 | 91 | 1013.7 |
| 20260905114558 | 75 | 0 | 0.0 | 0.0 | 0.00 | 0.00 | 0.00 | 91 | 1013.7 |
| 20260905113103 | 75 | 0 | 0.0 | 0.0 | 0.00 | 0.00 | 0.00 | 90 | 1013.6 |
| 20260905111604 | 75 | 0 | 0.0 | 0.0 | 0.00 | 0.00 | 0.00 | 90 | 1013.5 |
| 20260905110109 | 75 | 0 | 0.0 | 0.0 | 0.00 | 0.00 | 0.00 | 90 | 1013.3 |
| 20260905104610 | 75 | 0 | 1.0 | 2.0 | 0.00 | 0.00 | 0.00 | 90 | 1013.2 |
| 20260905103101 | 75 | 0 | 0.0 | 2.0 | 0.00 | 0.00 | 0.00 | 90 | 1013.1 |
| 20260905101604 | 75 | 0 | 0.0 | 1.0 | 0.00 | 0.00 | 0.00 | 90 | 1013.1 |
| 20260905100121 | 75 | 0 | 0.0 | 0.0 | 0.00 | 0.00 | 0.00 | 90 | 1013.0 |
| 20260905094602 | 75 | 0 | 0.0 | 1.0 | 0.00 | 0.00 | 0.00 | 91 | 1012.9 |
| 20260905093103 | 75 | 217 | 0.0 | 1.0 | 0.00 | 0.00 | 0.00 | 91 | 1013.1 |
| 20260905091609 | 76 | 0 | 0.0 | 0.0 | 0.00 | 0.00 | 0.00 | 91 | 1013.2 |